Location: Wyoming Infrared Observatory
(41.0971°N, 105.9765°W)
Time: 09:35:57
(UTC-06:00)

Daily predictions for brighter satellites

Satellite Brightness Start Highest point End
(mag) Time Altitude Azimuth Time Altitude Azimuth Time Altitude Azimuth
COSMOS 2455 4.5 19:11:19 10° WSW 19:16:50 36° NW 19:22:23 10° NNE
Meteor 2-5 Rocket 3.9 19:12:56 10° NNW 19:18:36 82° W 19:24:07 10° S
Meteor 1-24 Rocket 3.8 19:13:13 10° N 19:18:48 58° ENE 19:24:10 10° SSE
USA 238 DEB 4.1 19:11:56 10° SW 19:18:58 75° NW 19:26:03 10° NNE
USA 238 4.1 19:12:01 10° SW 19:19:04 76° NW 19:26:09 10° NNE
Cosmos 1812 Rocket 4.0 19:14:53 10° SSW 19:19:10 69° W 19:23:32 10° N
CZ-4C R/B 2.7 19:14:23 10° SW 19:19:39 66° NW 19:25:38 10° NNE
SAR-Lupe-4 3.6 19:16:33 10° SSE 19:20:03 58° ENE 19:23:35 10° N
FREGAT/IRIS 3.4 19:18:54 10° SE 19:21:42 33° ENE 19:24:33 10° N
SJ-6B 3.0 19:18:57 10° SSE 19:22:48 53° ENE 19:26:46 10° N
Cosmos 1437 2.7 19:20:28 10° N 19:23:44 69° E 19:26:58 10° SSE
Cosmos 921 Rocket 4.5 19:21:10 10° NNW 19:25:08 41° W 19:29:03 10° S
Cosmos 2369 Rocket 4.1 19:23:41 10° NNE 19:25:39 12° NE 19:27:36 10° ENE
Cosmos 1464 Rocket 4.2 19:25:34 10° SSE 19:31:34 50° E 19:37:31 10° NNE
Cosmos 1758 4.4 19:28:41 10° SE 19:32:01 25° E 19:35:23 10° NE
TIMED 4.5 19:29:08 10° NNW 19:33:33 85° ENE 19:37:54 10° SSE
Cosmos 1076 Rocket 3.7 19:36:13 10° N 19:40:26 48° E 19:44:37 10° SSE
Cosmos 2333 Rocket 3.7 19:36:16 10° SW 19:41:40 40° WNW 19:47:06 10° N
Spot 2 Rocket 3.6 19:37:30 10° SSE 19:42:23 54° ENE 19:47:18 10° N
Helios 1B rocket 2.8 19:38:47 10° NNE 19:42:42 42° E 19:46:36 10° S
ASTEX 1 4.4 19:41:05 10° NNE 19:45:00 23° E 19:48:54 10° SE
Cosmos 1484 Rocket 4.3 19:41:39 10° S 19:45:15 40° W 19:48:57 10° NNW
Cosmos-2242 3.7 19:41:31 10° SSE 19:45:24 32° E 19:49:18 10° NNE
Cosmos 2056 Rocket 3.8 19:40:57 10° NNW 19:46:23 77° WSW 19:51:47 10° SSE
FengYun 1-2 T 4.5 19:41:23 10° SE 19:46:37 47° ENE 19:51:51 10° N
NOSS 3-2 (C) 3.4 19:45:00 10° SSW 19:50:58 67° ESE 19:57:30 10° NE
CENTAUR R/B 3.7 19:47:27 10° SE 19:51:09 17° ESE 19:53:12 15° E
Cosmos 1674 4.3 19:48:54 10° NNE 19:51:32 17° ENE 19:51:56 17° E
In-Cosmos 22 4.3 19:50:15 10° N 19:56:00 63° ENE 20:01:40 10° SSE
ASTRO E2 4.5 19:53:19 10° SW 19:56:21 20° S 19:58:31 14° SE
NOAA 12 4.3 19:52:21 10° S 19:57:36 74° WSW 20:02:53 10° NNW
Cosmos 1408 Rocket 3.4 19:54:15 10° N 19:58:36 68° E 20:02:53 10° SSE
Cosmos 1346 4.1 19:57:43 10° NNE 20:00:12 25° ENE 20:00:12 25° ENE
Meteor 1-21 Rocket 4.3 19:56:41 10° N 20:02:07 51° ENE 20:07:29 10° SSE
Atlas Centaur 2 4.3 19:55:03 10° WSW 20:02:17 31° SSW 20:08:50 11° SE
Abrixas 4.3 20:00:34 10° S 20:02:06 17° SSE 20:02:06 17° SSE
Aureole 2 Rocket 3.7 19:59:46 10° SSW 20:04:05 56° WNW 20:08:20 10° N
ATLAS CENTAUR R/B 3.2 20:01:20 10° NW 20:04:58 30° WSW 20:08:22 10° S
Cosmos 1766 4.0 20:01:27 10° SSW 20:05:20 56° W 20:09:17 10° N
HJ-1C 3.4 20:03:14 10° S 20:06:35 80° WSW 20:09:58 10° NNW
Cosmos 2237 Rocket 4.2 20:02:30 10° WSW 20:07:27 30° NW 20:12:26 10° N
Resurs 01 Rocket 1.7 20:05:33 10° SSE 20:10:00 83° WSW 20:14:29 10° NNW
Resurs 1-3 3.5 20:07:03 10° SSE 20:11:25 80° ENE 20:15:50 10° N
ATLAS 5 CENTAUR R/B 1.7 20:10:03 10° SSW 20:14:48 83° ESE 20:19:59 10° NE
Meteor 1-29 3.0 20:15:05 10° N 20:18:36 81° WNW 20:22:06 10° SSW
CZ-2D R/B 3.4 20:18:24 30° SE 20:19:58 52° ENE 20:23:47 10° N
ISS -0.7 20:22:10 10° S 20:22:15 10° S 20:22:15 10° S
Cosmos 1743 Rocket 3.5 20:21:49 10° N 20:26:14 64° E 20:28:38 26° SSE
Cosmos 1953 2.5 20:22:39 10° SSW 20:26:37 71° W 20:30:37 10° N
SL-16 R/B 3.3 20:21:13 10° SW 20:26:39 46° WNW 20:32:08 10° NNE
USA 215 3.4 20:20:08 10° NE 20:26:41 77° NW 20:33:12 10° SW
Helios 1A 3.9 20:29:29 10° S 20:33:30 48° W 20:37:34 10° NNW
ATLAS CENTAUR R/B 4.1 20:28:51 10° WSW 20:34:20 73° NW 20:52:49 10° NE
ERS-1 Rocket 3.9 20:34:54 30° ENE 20:34:54 30° ENE 20:39:02 10° N
Cosmos 1805 4.1 20:33:19 10° SSW 20:37:09 52° W 20:41:01 10° N
H-2A R/B 2.6 20:36:26 41° SSE 20:37:43 85° E 20:41:38 10° N
Cosmos 1544 3.2 20:35:25 10° SSW 20:39:08 74° W 20:42:54 10° N
SeaSat 1 2.4 20:34:29 10° NE 20:39:21 55° ESE 20:44:11 10° S
GP-B 3.5 20:35:12 10° NNE 20:38:50 42° ENE 20:38:50 42° ENE
CZ-4B DEB 3.2 20:39:32 41° SSW 20:40:25 60° W 20:43:39 10° NNW
Nadezhda 4 Rocket 3.9 20:35:19 10° N 20:41:38 89° W 20:47:51 10° S
Cosmos 1452 Rocket 4.1 20:37:53 10° NNW 20:43:01 56° WSW 20:47:54 11° S
ALOS 2.6 20:42:51 13° S 20:47:02 63° W 20:51:41 10° NNW
Cosmos 1092 Rocket 3.8 20:41:29 10° N 20:47:42 75° E 20:51:18 26° SSE
OAO 3 Rocket 3.8 20:46:31 10° WSW 20:51:01 40° S 20:51:10 40° S
FENGYUN 3A 4.0 20:48:18 10° S 20:53:35 62° W 20:58:57 10° NNW
Cosmos 1470 3.6 20:59:51 43° N 20:59:51 43° N 21:02:33 10° N
Cosmos 1634 Rocket 3.8 20:55:48 10° S 21:02:01 74° E 21:08:14 10° N
Cosmos 2026 Rocket 4.0 20:57:15 10° N 21:03:14 55° E 21:03:21 55° E
Cosmos 839 Rocket 4.3 20:56:23 10° NNW 21:04:05 60° NE 21:05:20 52° E
Cosmos 1420 Rocket 4.3 21:00:50 10° NNW 21:06:04 63° WSW 21:07:54 39° S
H-2A R/B 4.3 21:08:56 15° NNE 21:08:56 15° NNE 21:09:58 10° N
Cosmos 1943 4.5 21:04:58 10° SSW 21:14:49 18° NNE 21:16:11 10° NNE
Cosmos 2369 Rocket 2.1 21:05:08 10° NNW 21:10:43 67° ENE 21:10:43 67° ENE
Cosmos 1943 Rocket 3.3 21:13:02 10° N 21:16:46 30° NNE 21:16:46 30° NNE
Cosmos 2195 Rocket 4.4 21:18:30 10° N 21:24:51 88° W 21:25:41 70° S
Envisat 3.7 21:33:30 48° NNW 21:33:30 48° NNW 21:37:09 10° NNW
Meteor 1-11 4.5 21:32:36 10° N 21:37:33 66° NNW 21:37:33 66° NNW
CENTAUR R/B 2.5 21:34:41 10° SW 21:46:45 14° NNE 21:47:38 10° NNE
ATLAS 5 CENTAUR R/B 4.4 21:56:48 10° WNW 22:00:14 18° NW 22:03:54 10° N
